Location: Ocean City
(38.3360°N, 75.0850°W)
Time: 10:34:28
(UTC-04:00)

BEESAT 2 - Pass Details

Date: 28 May 2019
Orbit: 502 x 528 km, 64.9° (Epoch: 15 June)

Event Time Altitude Azimuth Distance (km) Brightness Sun altitude
Rises 03:24:40 0° 314° (NW) 2,669 ? -21.0°
Reaches altitude 10° 03:27:12 10° 299° (WNW) 1,775 ? -20.7°
Enters shadow 03:27:23 11° 298° (WNW) 1,719 ? -20.7°
